Regional Weather Roundup
Issued by NWS

Home | Current Version | Previous Version | Graphics & Text | Print | Product List | Glossary On
Versions: 1 2 3 4 5 6 7 8 9 10 11 12 13 14 15 16 17 18 19 20 21 22 23 24 25 26 27 28 29 30 31 32 33 34 35 36 37 38 39 40 41 42 43 44 45 46 47 48 49 50
000
ASUS43 KDTX 300601
RWRMI
MICHIGAN HOURLY REGIONAL WEATHER ROUNDUP
NATIONAL WEATHER SERVICE DETROIT/PONTIAC MI
200 AM EDT TUE SEP 30 2014

NOTE: "FAIR" INDICATES FEW OR NO CLOUDS BELOW 12,000 FEET WITH NO
SIGNIFICANT WEATHER AND/OR OBSTRUCTION TO VISIBILITY.

MIZ047>049-052>055-059>063-066>070-074>076-081>083-300700-
SOUTHEAST LOWER MICHIGAN

CITY           SKY/WX    TMP DP  RH WIND       PRES   REMARKS
ADRIAN         CLOUDY    64  58  80 NW6       29.90S
6HR MIN TEMP:  58; 6HR MAX TEMP:  67;

ALMA           CLOUDY    51  48  91 NW6       29.96S
ANN ARBOR      LGT RAIN  63  58  83 N10       29.89R
BAD AXE        CLOUDY    52  52 100 N15       29.89F
6HR MIN TEMP:  52; 6HR MAX TEMP:  66;

CARO           CLOUDY    56  53  91 NW10      29.91R
DETROIT CITY     N/A    N/A N/A N/A MISG        N/A
DETROIT        CLOUDY    64  59  83 W5        29.88S
6HR MIN TEMP:  62; 6HR MAX TEMP:  67;

FLINT          CLOUDY    56  51  84 NW10      29.93R
6HR MIN TEMP:  56; 6HR MAX TEMP:  71; 6HR PCP:  0.08;

GROSSE ILE     MOCLDY    64  59  82 NW3       29.86S
HILLSDALE      DRIZZLE   62  62  99 N3        29.91S
6HR MIN TEMP:  57; 6HR MAX TEMP:  63;

HOWELL         RAIN      54  53  97 NW6       29.92R

CITY           SKY/WX    TMP DP  RH WIND       PRES   REMARKS
JACKSON        LGT RAIN  54  53  97 N5        29.93R
6HR MIN TEMP:  54; 6HR MAX TEMP:  63; 6HR PCP:  0.08;

LAMBERTVILLE   CLOUDY    61  55  82 W3        29.89S
LANSING        CLOUDY    52  50  93 NW8       29.95S
6HR MIN TEMP:  52; 6HR MAX TEMP:  70; 6HR PCP:  0.23;

LAPEER         NOT AVBL
MASON          RAIN      52  51  95 NW8       29.94S
MONROE         MOCLDY    59  57  94 W3        29.87R
MT. CLEMENS    HVY RAIN  63  63 100 NW9       29.85S FOG
                                      6HR PCP:  0.15;

PONTIAC        RAIN      58  55  90 NW12      29.89S
6HR MIN TEMP:  58; 6HR MAX TEMP:  67; 6HR PCP:  0.19;

PORT HOPE        N/A     56  54  93 CALM      29.87S
6HR MIN TEMP:  56; 6HR MAX TEMP:  63; 6HR PCP:  0.82;

PORT HURON     LGT RAIN  59  59 100 NW8       29.87S
TRI CITIES     CLOUDY    54  50  86 NW10      29.94S
6HR MIN TEMP:  54; 6HR MAX TEMP:  65; 6HR PCP:  0.17;

TROY           RAIN      64  61  89 NW5       29.90S
SAGINAW HB     CLOUDY    54  54 100 NW13      29.93R
$$
MIZ043>046-050>051-056>058-064>065-071>073-077>080-300700-
SOUTHWEST LOWER MICHIGAN

CITY           SKY/WX    TMP DP  RH WIND       PRES   REMARKS
BATTLE CREEK   CLOUDY    55  52  89 N12       29.95R
6HR MIN TEMP:  55; 6HR MAX TEMP:  68; 6HR PCP:  0.07;

BIG RAPIDS     CLOUDY    48  48 100 NW6       29.97F FOG
6HR MIN TEMP:  47; 6HR MAX TEMP:  54;

COLDWATER      LGT RAIN  62  60  96 NW5       29.92S
6HR MIN TEMP:  61; 6HR MAX TEMP:  69;

FREMONT        CLOUDY    47  46  96 N7        29.99F
GRAND RAPIDS   CLOUDY    51  49  92 N10       29.98S
6HR MIN TEMP:  51; 6HR MAX TEMP:  69; 6HR PCP:  0.02;

IONIA          CLOUDY    51  49  91 N8        29.96S
KALAMAZOO      CLOUDY    53  51  93 N13       29.97R
6HR MIN TEMP:  53; 6HR MAX TEMP:  69; 6HR PCP:  0.04;

LUDINGTON      LGT RAIN  49  48  96 N9        30.02S
6HR MIN TEMP:  49; 6HR MAX TEMP:  49; 6HR PCP:  0.01;

MARSHALL       CLOUDY    55  54  95 N6        29.93R
MOUNT PLEASANT CLOUDY    51  48  90 W6        29.95S
6HR MIN TEMP:  51; 6HR MAX TEMP:  59; 6HR PCP:  0.06;

MUSKEGON       MOCLDY    49  44  83 N13       30.01S
6HR MIN TEMP:  49; 6HR MAX TEMP:  57; 6HR PCP:  0.06;

SOUTH HAVEN    CLOUDY    51  50  95 N8        29.99R
$$
MIZ016>042-300700-
NORTHERN LOWER MICHIGAN

CITY           SKY/WX    TMP DP  RH WIND       PRES   REMARKS
ALPENA         LGT RAIN  47  46  97 N13       29.97R FOG
6HR MIN TEMP:  47; 6HR MAX TEMP:  54; 6HR PCP: TRACE;

BEAVER ISLAND  CLOUDY    46  42  87 N7G17     30.04R
6HR MIN TEMP:  46; 6HR MAX TEMP:  48;

BELLAIRE       CLOUDY    47  45  91 N5        30.01R
CADILLAC       DRIZZLE   47  46  99 NW5       29.97S
CHARLEVOIX     CLOUDY    47  46  97 NE9       30.04R
6HR MIN TEMP:  47; 6HR MAX TEMP:  51;

FRANKFORT      CLOUDY    49  45  86 N6        30.02S
GAYLORD        CLOUDY    44  43  96 N7        29.98S FOG
6HR MIN TEMP:  44; 6HR MAX TEMP:  50; 6HR PCP: TRACE;

GRAYLING       CLOUDY    49  48  95 N5        29.98S
6HR MIN TEMP:  49; 6HR MAX TEMP:  53;

HARBOR SPRINGS CLOUDY    45  42  90 N5        30.01S
HOUGHTON LAKE  CLOUDY    48  46  93 N9        29.97R
6HR MIN TEMP:  48; 6HR MAX TEMP:  50; 6HR PCP:  0.01;

OSCODA         DRIZZLE   50  49  99 N10       29.92R
PELLSTON       CLOUDY    44  42  93 NE13      30.02S
6HR MIN TEMP:  44; 6HR MAX TEMP:  48; 6HR PCP:  0.02;

TRAVERSE CITY  LGT RAIN  49  47  93 N13G20    29.99S FOG
6HR MIN TEMP:  49; 6HR MAX TEMP:  51; 6HR PCP:  0.05;

$$
MIZ007>008-015-300700-
EASTERN UPPER MICHIGAN

CITY           SKY/WX    TMP DP  RH WIND       PRES   REMARKS
MACKINAC ISLAN CLOUDY    43  41  93 N12       30.02S
6HR MIN TEMP:  43; 6HR MAX TEMP:  46;

NEWBERRY       CLOUDY    40  39  95 N8        30.05S
S. S. MARIE    CLOUDY    43  36  76 N7        30.03S
6HR MIN TEMP:  42; 6HR MAX TEMP:  45;

MUNISING         N/A     47  42  83 N22G29    30.10S
6HR MIN TEMP:  47; 6HR MAX TEMP:  48; 6HR PCP:  0.02;

$$
MIZ004>006-011>014-085-300700-
CENTRAL UPPER MICHIGAN

CITY           SKY/WX    TMP DP  RH WIND       PRES   REMARKS
MANISTIQUE     CLOUDY    42  39  91 N9G17     30.06S
SAWYER-GWINN   CLOUDY    40  37  89 N12G22    30.11S WCI  33
$$
MIZ001>003-009>011-084-300700-
WESTERN UPPER MICHIGAN

CITY           SKY/WX    TMP DP  RH WIND       PRES   REMARKS
IRON MOUNTAIN  CLOUDY    41  38  89 N9        30.11F
6HR MIN TEMP:  41; 6HR MAX TEMP:  44; 6HR PCP: TRACE;

HOUGHTON       CLOUDY    41  35  79 NE8       30.16F
6HR MIN TEMP:  40; 6HR MAX TEMP:  41;

COPPER HARBOR    N/A     44  37  76 VRB5      30.16F
6HR MIN TEMP:  44; 6HR MAX TEMP:  45;

$$

ABBREVIATIONS USED IN REMARKS
   TC - TEMPERATURE IN CELSIUS
  WCI - WIND CHILL INDEX
   HX - HEAT INDEX
  VSB - VISIBILITY




USA.gov is the U.S. government's official web portal to all federal, state and local government web resources and services.